Simultaneous Nadir Overpasses (SNOs) Predictions

Prediction of SNOs between AQUA and GOES-15 Satellite Orbit:

Table of predicted SNOs for the next 14.0 days since TLE Epoch: 5/27/2023
Index Date Time (AQUA) AQUA Lat,Lon GOES-15 Lat,Lon Distance(km) Time Diff (sec)
1 05/27/2023 12:11:07 0.46,-155.52 -0.00,-153.35 246.62 80
2 05/29/2023 11:57:08 -0.46,-152.13 0.01,-154.21 237.01 80
3 05/30/2023 00:18:04 -0.58,-157.21 0.02,-154.42 317.38 80
4 06/01/2023 00:04:04 0.31,-153.82 0.01,-155.27 165.47 80
5 06/01/2023 12:24:52 0.69,-158.87 -0.04,-155.51 382.08 80
6 06/03/2023 12:10:52 -0.24,-155.48 -0.03,-156.35 99.47 27
7 06/04/2023 00:31:48 -0.79,-160.56 0.06,-156.55 455.66 80
8 06/06/2023 00:17:47 0.11,-157.16 0.06,-157.38 24.70 80
9 06/08/2023 12:24:33 0.01,-158.81 -0.07,-158.43 43.69 13
